CANX-2

Satellite information

Favourite Embed

Satellite Type and Status

PAYLOADIN ORBIT

Key statistics

Satellite CANX-2 at a glance.

Uptime

6280

Days in orbit

Revolutions

≈ 15.0

Per day

Orbit

SSO

Sun Synchronous Orbit

Inclination

97.8

Latest

Satellite identification and parameters

Extended collection of information and parameters for CANX-2.

Object identification

Identified? True

Debris? False

Object name: CANX-2

International designator: 2008-021H

Object number (NORAD): 32790

Object ID (CCSDS): 32790

Country: CANADA (CA)

Current information (Y/N): Y

RCS size: SMALL

Orbital parameters

Period: 95.881 minutes

Inclination: 97.8168 deg

SMA: 6939.277 km

Apoapsis: 570.065 km

Periapsis: 552.218 km

RAAN: 158.8597 deg

Eccentricy: 0.0012859

Argument of periapsis: 114.8569 deg

Mean anomaly: 245.3993 deg

Mean motion: 15.01866946 rev/day

Mean motion (dot): 0.00002137 rev/day2

B* drag term: 0.00016821 1/REarth

Two-line elements (TLE)

Creation date: July 8, 2025, 2:27 a.m.

Reference frame: TEME

Reference center: EARTH

Epoch: July 7, 2025, 9:16 p.m. UTC

TLE line 0: 0 CANX-2

TLE line 1: 1 32790U 08021H 25188.88623082 .00002137 00000-0 16821-3 0 9997

TLE line 2: 2 32790 97.8168 158.8597 0012859 114.8569 245.3993 15.01866946933066

Live tracking on map

Real-time ground track for satellite CANX-2.

In-orbit conjunctions

There are no conjunctions computed for CANX-2, at the moment. Check back to stay up to date, as we update our databases every day.

Go to all conjunctions

Associated space launch

Indian Earth observation satellite. Launched alongside 9 nanosatellites.

CANX-2 was lifted into orbit during the mission ‘PSLV | Cartosat 2A’, on board a PSLV space rocket.

The launch took place on April 28, 2008, 3:53 a.m. from Satish Dhawan Space Centre Second Launch Pad.

For more information about the launch, click the button.

Launch to space PSLV | Cartosat 2A
PSLV | Cartosat 2A

Agency: N/A

Status: Launch Successful

Launch date: April 28, 2008, 3:53 a.m. UTC

Rocket: PSLV

Launch pad: Satish Dhawan Space Centre Second Launch Pad

Location: Satish Dhawan Space Centre, India

...

Latest news about this satellite

There are no fresh news available about this satellite. Check back as we update our databases every day.


Newsletter sign-up

Weekly statistics, charts and insights to help you stay on top of the space industry.